Location: Newark
(55.8372°N, 37.1596°E)
Time: 01:06:18
(UTC+00:00)

Envisat - Pass Details

Date: 18 October 2019
Orbit: 764 x 766 km, 98.1° (Epoch: 22 November)

Event Time Altitude Azimuth Distance (km) Brightness Sun altitude
Rises 15:25:45 0° 168° (SSE) 3,225 6.1 -9.3°
Reaches altitude 10° 15:28:03 10° 170° (S) 2,303 5.4 -9.6°
Maximum altitude 15:33:08 75° 256° (WSW) 799 3.3 -10.3°
Drops below altitude 10° 15:38:15 10° 342° (NNW) 2,319 5.7 -11.0°
Sets 15:40:34 0° 344° (NNW) 3,249 6.5 -11.4°
